This demonstration page uses our WeatherBlox Daily Observations layout. Learn more.

38.88101, -77.10428

Hourly Observations for March 7, 2018

Temp ( °F °C ) Dew Point ( °F °C ) Humidity (%) Winds ( mph kmh ) Pressure ( in mb ) Visibility ( mi km ) Precip ( " mm )
12:09 am 00:09 Cloudy 34 1.1 33 0.6 97 97 ENE 9 15 29.83 1010 7 11.26538 0 0.0254
12:32 am 00:32 Cloudy with Light Snow 34 1.1 34 1.1 100 100 ENE 6 9 29.83 1010 10 16.0934 0 0.0254
12:52 am 00:52 Cloudy with Light Rain 35 1.7 34 1.1 96 96 NE 6 9 29.84 1011 10 16.0934 0 0.0254
1:52 am 01:52 Cloudy 35 1.7 33 0.6 93 93 NE 10 17 29.82 1010 10 16.0934 0 0.0254
2:52 am 02:52 Cloudy with Light Drizzle 35 1.7 34 1.1 96 96 NNE 9 15 29.78 1009 5 8.0467 0 0.0254
3:52 am 03:52 Cloudy with Light Drizzle 35 1.7 34 1.1 96 96 N 10 17 29.76 1008 5 8.0467 0 0.0254
4:21 am 04:21 Cloudy with Light Drizzle 36 2.2 35 1.7 97 97 NNE 12 19 29.77 1008 2.5 4.02335 0 0.0254
4:52 am 04:52 Cloudy with Light Drizzle 36 2.2 35 1.7 97 97 NNE 10 17 29.74 1007 4 6.43736 0.01 0.254
5:52 am 05:52 Cloudy with Light Drizzle 36 2.2 35 1.7 97 97 NNE 10 17 29.73 1007 6 9.65604 0 0.0254
6:52 am 06:52 Cloudy with Light Drizzle 36 2.2 35 1.7 97 97 NNE 12 19 29.72 1007 5 8.0467 0 0.0254
7:09 am 07:09 Cloudy with Light Drizzle 37 2.8 35 1.7 93 93 N 10 17 29.71 1006 5 8.0467 0 0.0254
7:52 am 07:52 Cloudy with Light Drizzle 37 2.8 35 1.7 93 93 NNE 10 17 29.7 1006 4 6.43736 0 0.0254
8:24 am 08:24 Cloudy with Light Drizzle 37 2.8 36 2.2 96 96 NNE 10 17 29.71 1006 4 6.43736 0 0.0254
8:52 am 08:52 Cloudy with Light Drizzle 39 3.9 36 2.2 89 89 N 12 19 29.7 1006 3 4.82802 0 0.0254
9:07 am 09:07 Cloudy with Light Drizzle 38 3.3 37 2.8 97 97 NNW 12 19 29.71 1006 2 3.21868 0 0.0254
9:19 am 09:19 Cloudy with Light Rain 38 3.3 37 2.8 97 97 N 12 19 29.71 1006 1.75 2.816345 0.01 0.254
9:33 am 09:33 Cloudy with Light Rain 38 3.3 37 2.8 97 97 N 12 19 29.71 1006 2 3.21868 0.02 0.508
9:52 am 09:52 Cloudy with Light Rain 39 3.9 37 2.8 93 93 NNW 12 19 29.7 1006 2.5 4.02335 0.02 0.508
10:04 am 10:04 Cloudy with Light Rain 39 3.9 38 3.3 96 96 N 14 22 29.71 1006 3 4.82802 0 0.0254
10:43 am 10:43 Cloudy with Light Drizzle 41 5 38 3.3 89 89 NNW 14 22 29.68 1005 6 9.65604 0 0.0254
10:52 am 10:52 Cloudy with Mist and Fog 40 4.4 37 2.8 89 89 NNW 14 22 29.69 1006 6 9.65604 0 0.0254
11:52 am 11:52 Cloudy 44 6.7 40 4.4 85 85 NNW 12 19 29.69 1005 10 16.0934 0 0
12:44 pm 12:44 Cloudy 43 6.1 38 3.3 82 82 NNW 15 24 29.68 1005 10 16.0934 0 0
12:52 pm 12:52 Cloudy 43 6.1 37 2.8 80 80 NW 12 19 29.68 1005 10 16.0934 0 0
1:50 pm 13:50 Mostly Cloudy 46 8 37 3 71 71 NW 13 20 29.68 1005 10 16.0934 0 0
1:52 pm 13:52 Mostly Cloudy 46 7.8 37 2.8 71 71 NNW 13 20 29.67 1005 10 16.0934 0 0
2:52 pm 14:52 Mostly Cloudy 47 8.3 36 2.2 66 66 NNW 17 28 29.67 1005 10 16.0934 0 0
3:52 pm 15:52 Mostly Cloudy 51 10.6 36 2.2 56 56 NNW 16 26 29.69 1006 10 16.0934 0 0
4:18 pm 16:18 Mostly Cloudy 49 9.4 37 2.8 64 64 NNE 15 24 29.71 1006 10 16.0934 0 0
4:52 pm 16:52 Mostly Cloudy 47 8.3 34 1.1 61 61 NNW 18 30 29.71 1006 10 16.0934 0 0
5:52 pm 17:52 Mostly Cloudy 47 8.3 32 0 56 56 N 10 17 29.75 1008 10 16.0934 0 0
6:52 pm 18:52 Cloudy 46 7.8 33 0.6 61 61 NW 13 20 29.79 1009 10 16.0934 0 0
7:52 pm 19:52 Cloudy 45 7.2 29 -1.7 54 54 NW 10 17 29.81 1010 10 16.0934 0 0
8:52 pm 20:52 Partly Cloudy 44 6.7 25 -3.9 47 47 NW 14 22 29.83 1010 10 16.0934 0 0
9:52 pm 21:52 Partly Cloudy 43 6.1 24 -4.4 47 47 WNW 17 28 29.85 1011 10 16.0934 0 0
10:52 pm 22:52 Mostly Clear 41 5 26 -3.3 55 55 WNW 9 15 29.86 1011 10 16.0934 0 0
11:52 pm 23:52 Mostly Clear 40 4.4 25 -3.9 55 55 WNW 13 20 29.85 1011 10 16.0934 0 0

Powered by AerisWeather